Location: Eppenbrunn
(49.1158°N, 7.5601°E)
Time: 06:02:45
(UTC+00:00)

IGS 5A - Visible Passes

Search period start: 11 August 2020 00:00
Search period end: 21 August 2020 00:00
Orbit: 582 x 589 km, 97.6° (Epoch: 08 August)

Date Brightness Start Highest point End Pass type
(mag) Time Alt. Az. Time Alt. Az. Time Alt. Az.
11 Aug 3.8 20:01:55 14° SE 20:05:16 49° ENE 20:09:16 10° N visible
11 Aug 5.7 21:38:22 11° SW 21:40:59 18° W 21:43:54 10° NW visible
12 Aug 3.6 20:08:51 16° SSE 20:12:01 57° ENE 20:16:06 10° N visible
12 Aug 5.9 21:45:19 10° SW 21:47:51 16° W 21:50:24 10° NW visible
13 Aug 3.5 20:15:48 18° SSE 20:18:47 68° ENE 20:22:55 10° N visible
13 Aug 6.0 21:52:38 10° WSW 21:54:43 13° W 21:56:48 10° WNW visible
14 Aug 3.4 20:22:45 20° SSE 20:25:33 80° ENE 20:29:43 10° N visible
14 Aug 6.1 22:00:10 10° WSW 22:01:35 11° W 22:03:00 10° WNW visible
15 Aug 3.4 20:29:41 22° SSE 20:32:20 87° WSW 20:36:31 10° NNW visible
16 Aug 3.5 20:36:38 23° S 20:39:07 75° WSW 20:43:17 10° NNW visible
17 Aug 3.8 20:43:34 24° S 20:45:54 63° WSW 20:50:02 10° NNW visible
18 Aug 5.2 19:14:45 10° ESE 19:17:36 18° ENE 19:20:29 10° NNE visible
18 Aug 4.0 20:50:31 25° SSW 20:52:43 53° W 20:56:48 10° NNW visible
19 Aug 5.0 19:21:13 10° ESE 19:24:20 21° ENE 19:27:28 10° NNE visible
19 Aug 4.3 20:57:29 25° SSW 20:59:31 45° W 21:03:31 10° NNW visible
20 Aug 4.8 19:27:58 11° ESE 19:31:03 24° ENE 19:34:24 10° N visible
20 Aug 4.6 21:04:25 24° SSW 21:06:19 38° W 21:10:14 10° NNW visible
